Location: Rotheul
(50.2849°N, 11.2349°E)
Time: 17:43:48
(UTC+02:00)

ISS - Pass Details

Date: 17 September 2018
Orbit: 403 x 408 km, 51.6° (Epoch: 23 September)

Event Time Altitude Azimuth Distance (km) Brightness Sun altitude
Exits shadow 04:54:45 18° 158° (SSE) 1,082 -1.8 -18.9°
Drops below altitude 10° 04:55:50 10° 147° (SSE) 1,456 -1.0 -18.7°
Sets 04:58:01 0° 137° (SE) 2,311 0.2 -18.4°
